| time (UTC) | temp F | wind direction | speed MPH | gust MPH | rain 1hr in | rain 24hr in | rain mn in | humidity % | barometer mb |
| 20260902120148 | 63 | 113 | 0.0 | 1.0 | 0.00 | 0.07 | 0.00 | 95 | 1018.6 |
| 20260902114547 | 63 | 49 | 0.0 | 2.0 | 0.00 | 0.07 | 0.00 | 95 | 1018.6 |
| 20260902113057 | 0 | 0.0 | 0.0 | 0.00 | 0.07 | 0.00 | 1018.4 | ||
| 20260902111550 | 0 | 0.0 | 0.0 | 0.00 | 0.07 | 0.00 | 1018.3 | ||
| 20260902110038 | 0 | 0.0 | 0.0 | 0.00 | 0.07 | 0.00 | 1018.3 | ||
| 20260902104540 | 0 | 0.0 | 0.0 | 0.00 | 0.07 | 0.00 | 1018.8 | ||
| 20260902103026 | 0 | 0.0 | 0.0 | 0.00 | 0.07 | 0.00 | 1018.7 | ||
| 20260902101522 | 0 | 0.0 | 0.0 | 0.00 | 0.07 | 0.00 | 1018.7 | ||
| 20260902100029 | 0 | 141 | 0.0 | 1.0 | 0.00 | 0.07 | 0.00 | 94 | 1018.7 |
| 20260902094519 | 64 | 141 | 0.0 | 1.0 | 0.00 | 0.21 | 0.00 | 94 | 1018.4 |
| 20260902093012 | 64 | 164 | 0.0 | 0.0 | 0.00 | 0.21 | 0.00 | 94 | 1018.3 |
| 20260902091512 | 64 | 164 | 0.0 | 1.0 | 0.00 | 0.21 | 0.00 | 93 | 1018.3 |
| 20260902090009 | 64 | 88 | 0.0 | 2.0 | 0.00 | 0.21 | 0.00 | 93 | 1018.2 |
| 20260902084509 | 65 | 48 | 0.0 | 3.0 | 0.00 | 0.40 | 0.00 | 93 | 1018.1 |
| 20260902083010 | 65 | 164 | 0.0 | 3.0 | 0.00 | 0.40 | 0.00 | 93 | 1018.0 |
| 20260902081514 | 65 | 53 | 0.0 | 1.0 | 0.00 | 0.40 | 0.00 | 93 | 1018.0 |
| 20260902080007 | 65 | 52 | 0.0 | 1.0 | 0.00 | 0.40 | 0.00 | 93 | 1017.7 |
| 20260902074505 | 65 | 139 | 0.0 | 1.0 | 0.00 | 0.52 | 0.00 | 94 | 1017.8 |
| 20260902073005 | 65 | 49 | 0.0 | 4.0 | 0.00 | 0.52 | 0.00 | 93 | 1017.7 |
| 20260902071505 | 66 | 147 | 0.0 | 5.0 | 0.00 | 0.52 | 0.00 | 94 | 1017.7 |
| 20260902070104 | 66 | 162 | 0.0 | 3.0 | 0.00 | 0.52 | 0.00 | 94 | 1017.8 |
| 20260902064606 | 66 | 148 | 0.0 | 1.0 | 0.00 | 0.52 | 0.00 | 94 | 1017.8 |
| 20260902063058 | 67 | 177 | 0.0 | 1.0 | 0.00 | 0.52 | 0.00 | 95 | 1017.9 |
| 20260902061621 | 67 | 118 | 0.0 | 0.0 | 0.00 | 0.52 | 0.00 | 95 | 1017.9 |
| 20260902060058 | 67 | 117 | 0.0 | 0.0 | 0.00 | 0.52 | 0.00 | 95 | 1017.9 |
| 20260902054601 | 67 | 116 | 0.0 | 1.0 | 0.00 | 0.52 | 0.00 | 95 | 1017.8 |
| 20260902053056 | 67 | 145 | 0.0 | 1.0 | 0.00 | 0.52 | 0.00 | 95 | 1017.6 |
| 20260902051556 | 67 | 145 | 0.0 | 0.0 | 0.00 | 0.52 | 0.00 | 95 | 1017.5 |
| 20260902044550 | 67 | 146 | 0.0 | 0.0 | 0.00 | 0.52 | 0.00 | 96 | 1017.5 |
| 20260902043051 | 66 | 146 | 0.0 | 0.0 | 0.00 | 0.52 | 0.00 | 96 | 1017.3 |
| 20260902041559 | 67 | 146 | 0.0 | 0.0 | 0.00 | 0.52 | 0.00 | 97 | 1017.1 |
| 20260902040045 | 67 | 146 | 0.0 | 0.0 | 0.00 | 0.52 | 0.00 | 97 | 1017.0 |
| 20260902034551 | 66 | 146 | 0.0 | 1.0 | 0.00 | 0.52 | 0.52 | 97 | 1016.8 |
| 20260902033052 | 66 | 169 | 0.0 | 0.0 | 0.00 | 0.52 | 0.52 | 97 | 1016.9 |
| 20260902031542 | 66 | 169 | 0.0 | 0.0 | 0.00 | 0.52 | 0.52 | 97 | 1016.8 |
| 20260902030041 | 66 | 169 | 0.0 | 0.0 | 0.00 | 0.52 | 0.52 | 97 | 1016.9 |
| 20260902024544 | 66 | 169 | 0.0 | 0.0 | 0.00 | 0.53 | 0.52 | 97 | 1016.9 |
| 20260902023041 | 66 | 169 | 0.0 | 0.0 | 0.00 | 0.53 | 0.52 | 97 | 1016.9 |
| 20260902021553 | 67 | 169 | 0.0 | 0.0 | 0.00 | 0.53 | 0.52 | 96 | 1016.9 |
| 20260902020040 | 67 | 169 | 0.0 | 0.0 | 0.00 | 0.53 | 0.52 | 96 | 1017.0 |
| 20260902014541 | 67 | 169 | 0.0 | 0.0 | 0.00 | 0.53 | 0.52 | 96 | 1017.0 |
| 20260902013039 | 67 | 169 | 0.0 | 0.0 | 0.00 | 0.53 | 0.52 | 96 | 1017.1 |
| 20260902011541 | 67 | 169 | 0.0 | 0.0 | 0.00 | 0.53 | 0.52 | 96 | 1016.9 |
| 20260902010054 | 67 | 169 | 0.0 | 0.0 | 0.00 | 0.53 | 0.52 | 96 | 1016.6 |
| 20260902004543 | 67 | 169 | 0.0 | 0.0 | 0.00 | 0.53 | 0.52 | 95 | 1016.3 |
| 20260902003037 | 67 | 161 | 0.0 | 0.0 | 0.00 | 0.53 | 0.52 | 95 | 1016.2 |
| 20260902001537 | 68 | 161 | 0.0 | 0.0 | 0.00 | 0.53 | 0.52 | 95 | 1016.1 |
| 20260902000048 | 68 | 161 | 0.0 | 0.0 | 0.00 | 0.53 | 0.52 | 94 | 1015.9 |
| 20260901234602 | 68 | 160 | 0.0 | 0.0 | 0.00 | 0.53 | 0.52 | 94 | 1015.8 |
| 20260901233036 | 68 | 161 | 0.0 | 0.0 | 0.00 | 0.53 | 0.52 | 93 | 1015.9 |
| 20260901231546 | 69 | 160 | 0.0 | 1.0 | 0.00 | 0.53 | 0.52 | 93 | 1015.8 |
| 20260901230043 | 69 | 176 | 0.0 | 0.0 | 0.00 | 0.53 | 0.52 | 92 | 1015.8 |
| 20260901224537 | 69 | 160 | 0.0 | 3.0 | 0.00 | 0.53 | 0.52 | 92 | 1015.7 |
| 20260901223047 | 69 | 264 | 0.0 | 2.0 | 0.00 | 0.53 | 0.52 | 92 | 1015.7 |
| 20260901221535 | 69 | 136 | 2.0 | 6.0 | 0.00 | 0.53 | 0.52 | 92 | 1015.6 |
| 20260901220035 | 70 | 239 | 0.0 | 3.0 | 0.00 | 0.53 | 0.52 | 92 | 1015.5 |
| 20260901214531 | 70 | 174 | 0.0 | 2.0 | 0.00 | 0.53 | 0.52 | 92 | 1015.5 |
| 20260901213030 | 70 | 139 | 0.0 | 2.0 | 0.00 | 0.53 | 0.52 | 92 | 1015.8 |
| 20260901211541 | 70 | 167 | 0.0 | 2.0 | 0.00 | 0.53 | 0.52 | 92 | 1015.7 |
| 20260901210028 | 70 | 173 | 0.0 | 5.0 | 0.00 | 0.53 | 0.52 | 93 | 1015.4 |
| 20260901204540 | 70 | 179 | 1.0 | 3.0 | 0.00 | 0.53 | 0.52 | 94 | 1015.3 |
| 20260901203028 | 69 | 240 | 1.0 | 4.0 | 0.00 | 0.53 | 0.52 | 94 | 1015.2 |
| 20260901201526 | 70 | 162 | 1.0 | 3.0 | 0.00 | 0.53 | 0.52 | 94 | 1015.3 |
| 20260901200037 | 70 | 159 | 0.0 | 5.0 | 0.00 | 0.53 | 0.52 | 93 | 1015.4 |
| 20260901194525 | 70 | 163 | 0.0 | 4.0 | 0.00 | 0.53 | 0.52 | 93 | 1015.5 |
| 20260901193024 | 70 | 143 | 0.0 | 3.0 | 0.00 | 0.53 | 0.52 | 92 | 1015.5 |
| 20260901191529 | 72 | 238 | 1.0 | 3.0 | 0.00 | 0.53 | 0.52 | 90 | 1015.2 |
| 20260901190029 | 72 | 250 | 0.0 | 3.0 | 0.00 | 0.53 | 0.52 | 88 | 1015.2 |
| 20260901184522 | 72 | 95 | 0.0 | 5.0 | 0.00 | 0.53 | 0.52 | 88 | 1015.0 |
| 20260901183035 | 72 | 83 | 0.0 | 4.0 | 0.00 | 0.53 | 0.52 | 89 | 1014.9 |
| 20260901181520 | 72 | 138 | 0.0 | 2.0 | 0.00 | 0.53 | 0.52 | 90 | 1014.9 |
| 20260901180017 | 71 | 164 | 0.0 | 1.0 | 0.00 | 0.53 | 0.52 | 91 | 1014.9 |
| 20260901174515 | 71 | 140 | 0.0 | 1.0 | 0.00 | 0.53 | 0.52 | 91 | 1014.8 |
| 20260901173014 | 71 | 131 | 0.0 | 1.0 | 0.00 | 0.53 | 0.52 | 91 | 1014.9 |
| 20260901171513 | 70 | 79 | 0.0 | 2.0 | 0.00 | 0.53 | 0.52 | 91 | 1014.9 |
| 20260901170011 | 70 | 124 | 0.0 | 3.0 | 0.00 | 0.53 | 0.52 | 92 | 1014.8 |
| 20260901164511 | 70 | 78 | 0.0 | 2.0 | 0.00 | 0.53 | 0.52 | 92 | 1014.8 |
| 20260901163008 | 69 | 228 | 0.0 | 1.0 | 0.00 | 0.53 | 0.52 | 94 | 1014.8 |
| 20260901161505 | 68 | 131 | 0.0 | 0.0 | 0.00 | 0.53 | 0.52 | 95 | 1015.0 |
| 20260901160004 | 68 | 124 | 0.0 | 0.0 | 0.00 | 0.53 | 0.52 | 96 | 1015.0 |
| 20260901154501 | 67 | 123 | 0.0 | 1.0 | 0.00 | 0.53 | 0.52 | 97 | 1015.1 |
| 20260901153100 | 67 | 121 | 0.0 | 3.0 | 0.00 | 0.53 | 0.52 | 98 | 1014.9 |
| 20260901151559 | 67 | 269 | 0.0 | 1.0 | 0.03 | 0.53 | 0.52 | 98 | 1014.9 |
| 20260901150058 | 67 | 177 | 0.0 | 2.0 | 0.04 | 0.53 | 0.52 | 98 | 1014.8 |
| 20260901144555 | 66 | 251 | 0.0 | 3.0 | 0.04 | 0.53 | 0.52 | 98 | 1014.6 |
| 20260901143054 | 66 | 263 | 0.0 | 2.0 | 0.04 | 0.53 | 0.52 | 98 | 1014.9 |
| 20260901141559 | 66 | 67 | 0.0 | 1.0 | 0.02 | 0.50 | 0.49 | 98 | 1015.7 |
| 20260901140053 | 65 | 66 | 0.0 | 1.0 | 0.01 | 0.49 | 0.48 | 98 | 1015.6 |
| 20260901134552 | 65 | 71 | 0.0 | 1.0 | 0.01 | 0.49 | 0.48 | 98 | 1015.2 |
| 20260901133050 | 65 | 71 | 0.0 | 0.0 | 0.01 | 0.49 | 0.48 | 98 | 1015.2 |
| 20260901131549 | 65 | 72 | 0.0 | 1.0 | 0.00 | 0.48 | 0.47 | 98 | 1015.3 |
| 20260901130048 | 65 | 72 | 0.0 | 0.0 | 0.02 | 0.48 | 0.47 | 98 | 1015.5 |
| 20260901124554 | 65 | 72 | 0.0 | 1.0 | 0.02 | 0.48 | 0.47 | 98 | 1015.5 |
| 20260901123046 | 65 | 72 | 0.0 | 0.0 | 0.02 | 0.48 | 0.47 | 98 | 1015.7 |
| 20260901121557 | 64 | 72 | 0.0 | 0.0 | 0.02 | 0.48 | 0.47 | 98 | 1015.6 |